Regional Weather Roundup
Issued by NWS Sioux Falls, SD

Home | Current Version | Previous Version | Text Only | Print | Product List | Glossary On
Versions: 1 2 3 4 5 6 7 8 9 10 11 12 13 14 15 16 17 18 19 20 21 22 23 24 25 26 27 28 29 30 31 32 33 34 35 36 37 38 39 40 41 42 43 44 45 46 47 48 49 50
000
ASUS43 KFSD 252302
RWRFSD

WEATHER ROUNDUP FOR SE SOUTH DAKOTA/SW MINNESOTA/NW IOWA
NATIONAL WEATHER SERVICE SIOUX FALLS SD
600 PM CDT SAT OCT 25 2014

NOTE: "FAIR" INDICATES FEW OR NO CLOUDS BELOW 12,000 FEET WITH NO
SIGNIFICANT WEATHER AND OR OBSTRUCTIONS TO VISIBILITY.


SDZ038>040-050-052>070-260000-
SOUTHEAST SOUTH DAKOTA

CITY           SKY/WX    TMP DP  RH WIND       PRES   REMARKS
CHAMBERLAIN    CLEAR     64  29  26 E5        30.05F
HURON          CLEAR     64  29  26 NE6       30.07F
MADISON        FAIR      61  27  27 NE7       30.09S
MITCHELL       CLEAR     64  36  35 NE5       30.07F
SIOUX FALLS    CLEAR     59  39  47 NE7       30.07F
WINNER         FAIR      68  30  24 SE12      30.03F
YANKTON        CLEAR     66  34  30 E5        30.06F
$$

MNZ071-072-080-081-089-090-097-098-260000-
SOUTHWEST MINNESOTA

CITY           SKY/WX    TMP DP  RH WIND       PRES   REMARKS
FAIRMONT       CLEAR     63  -8   6 NW10      30.08S
JACKSON        CLEAR     61  27  27 N6        30.10S
LUVERNE        CLEAR     64  30  27 E3        30.09F
MARSHALL       CLEAR     61  30  31 N7        30.09S
MONTEVIDEO     CLEAR     61  28  29 N5        30.10S
PIPESTONE      CLEAR     64  27  24 CALM      30.08F
REDWOOD FALLS  CLEAR     61  27  27 NW8       30.09R
TRACY          CLEAR     60  31  33 N5        30.10S
WINDOM         CLEAR     59  30  33 CALM      30.10S
WORTHINGTON    CLEAR     61  28  29 N6        30.10F
$$

IAZ001>003-012>014-020>022-031-032-NEZ013-014-SDZ071-260000-
NORTHWEST IOWA

CITY           SKY/WX    TMP DP  RH WIND       PRES   REMARKS
CHEROKEE       CLEAR     65  36  34 CALM      30.08S
DENISON        CLEAR     66  34  30 E5        30.05F
ESTHERVILLE    CLEAR     61  28  28 NW8       30.08S
LE MARS        CLEAR     66  36  32 N5        30.07F
ORANGE CITY    CLEAR     68  28  22 CALM      30.08F
SHELDON        CLEAR     63  32  31 NE5       30.07F
SIOUX CITY     CLEAR     68  36  30 E6        30.06F
SPENCER        CLEAR     63  34  33 N5        30.09S
STORM LAKE     CLEAR     63  36  36 NE5       30.08F
$$

ABBREVIATIONS USED IN REMARKS
   TC - TEMPERATURE IN CELSIUS
  WCI - WIND CHILL INDEX
   HX - HEAT INDEX
  VSB - VISIBILITY




USA.gov is the U.S. government's official web portal to all federal, state and local government web resources and services.